Theta_e
315 315 315 316 317 318 319 320 321 321 321 321 320 319 318 319 317 317 318 318 316 316 316 315 314 314 314 315 317 318 318 317 314 312 313 313 312 312 312 313 314 314 313 314 315 316 316 315 314 313 316 318 317 317 318 320 327 336 340 336 325 324 324 321 320 317 320 323 316 312 313 316 314 307 303 303 304 304 303 303 301 300 298 299 299 298 299 299
314 314 314 315 316 317 317 318 320 320 320 320 320 319 318 318 317 316 316 318 317 316 316 315 315 314 314 315 316 317 316 318 316 313 313 312 312 312 312 313 314 314 313 313 315 315 317 318 314 315 322 320 315 318 320 316 324 337 336 327 321 327 325 319 321 316 315 319 315 313 312 313 315 310 304 307 308 303 305 305 300 301 299 298 298 298 298 297
313 313 313 314 315 316 316 317 318 319 320 320 320 319 318 317 317 316 315 318 318 316 316 316 315 314 314 315 316 317 316 317 316 314 314 312 311 311 311 313 314 314 313 312 315 313 314 316 311 316 326 321 316 321 325 318 319 328 327 322 324 332 325 316 319 318 315 315 316 313 310 310 311 308 306 309 309 304 307 307 303 303 301 300 298 297 297 297
312 313 313 314 315 315 316 316 317 318 319 319 319 319 318 317 317 316 315 317 317 316 316 316 315 315 315 314 317 316 316 318 315 314 314 312 312 311 310 312 313 314 313 312 313 313 313 312 310 317 322 318 322 324 322 319 317 318 321 321 323 324 319 317 318 317 315 312 316 316 311 311 309 307 307 309 310 308 308 307 307 307 301 300 299 296 296 296
312 313 313 314 315 315 316 316 317 317 318 319 319 318 318 317 316 316 315 316 316 316 316 316 316 316 315 314 317 316 317 321 316 314 314 312 312 311 311 310 311 313 313 312 312 312 312 310 314 324 323 320 328 327 318 316 315 315 316 317 321 319 314 318 318 316 314 312 316 316 313 312 308 307 308 309 313 313 309 306 305 304 300 299 299 296 295 294
310 311 313 314 314 315 315 316 316 316 317 317 318 318 317 317 316 315 315 315 316 315 316 317 316 316 315 315 317 316 318 321 316 314 314 312 312 312 312 310 311 313 312 313 311 312 315 314 319 327 325 323 322 320 316 314 314 315 315 314 318 318 314 316 317 316 315 314 317 317 313 311 308 310 309 308 312 312 307 305 303 301 298 297 296 295 295 294
309 309 311 312 313 314 314 315 315 315 315 315 316 316 317 316 316 315 314 315 315 315 315 317 316 316 315 314 316 318 321 320 315 315 313 312 312 312 312 310 310 312 313 312 310 316 321 319 320 321 321 321 317 316 316 314 315 317 316 315 316 314 314 316 316 316 315 314 315 313 311 311 312 312 309 307 309 308 303 299 299 297 296 295 295 295 295 294
308 308 309 310 311 312 313 314 314 314 314 314 314 315 316 316 315 315 314 314 315 314 315 316 316 315 315 315 317 324 327 320 314 314 314 312 312 312 312 311 310 312 312 311 311 316 321 319 318 316 317 317 314 315 314 314 318 319 315 315 316 313 316 317 314 317 316 314 311 309 312 313 312 309 307 309 308 305 301 297 297 296 295 295 296 296 294 293
308 308 308 308 309 310 311 312 312 313 312 312 312 313 314 315 314 314 313 314 315 315 315 316 316 316 316 317 318 326 327 317 313 314 313 313 312 312 312 311 310 311 312 311 310 312 316 317 315 314 315 316 313 314 315 314 315 315 314 317 317 314 315 315 314 317 316 313 309 310 314 312 308 306 308 310 307 302 299 298 298 297 297 296 296 296 294 293
309 308 308 308 308 308 309 309 310 311 311 311 311 311 312 314 314 314 313 313 315 314 315 316 316 317 317 317 318 322 320 314 313 313 313 313 312 312 313 311 310 310 311 311 311 311 313 314 313 313 316 316 313 313 313 312 312 313 315 316 315 313 313 313 313 314 311 309 309 310 313 310 305 306 310 308 301 299 299 299 297 297 297 296 296 295 293 292
311 309 309 309 309 309 308 308 309 309 310 310 310 311 311 312 312 313 313 312 315 314 314 316 315 316 317 316 321 322 317 314 313 312 312 312 312 312 312 311 310 310 311 311 311 311 311 311 310 311 314 314 313 312 311 310 311 312 312 313 313 314 312 309 311 312 309 309 310 309 310 309 305 307 311 306 298 298 301 299 296 297 297 295 296 295 293 292
312 311 310 310 309 309 309 309 309 308 309 309 309 310 309 311 311 312 312 312 314 314 314 316 314 316 315 316 322 321 316 314 312 311 311 311 311 312 312 311 311 310 310 311 311 310 311 310 310 312 312 311 313 313 310 309 309 311 312 313 315 321 317 308 310 311 308 310 311 310 311 311 309 309 310 304 297 297 299 298 296 296 296 295 296 296 294 293
313 312 311 311 310 310 310 309 309 309 309 309 309 309 309 310 310 311 312 312 313 314 314 315 315 315 316 320 320 315 314 314 311 310 310 310 311 313 312 309 310 310 310 311 310 310 310 310 310 311 311 313 315 310 310 311 310 311 310 313 318 325 322 310 309 309 307 311 311 311 314 315 313 311 307 300 296 298 299 298 296 296 296 295 295 295 295 293
313 313 312 311 311 310 310 310 309 309 309 309 309 309 309 309 310 311 311 312 313 314 314 314 315 314 317 322 317 313 314 313 311 311 310 310 310 314 311 309 311 311 311 311 310 310 310 310 309 310 310 311 311 306 312 319 317 314 310 319 323 320 325 319 311 311 310 310 309 310 315 315 314 315 307 298 296 299 300 298 296 296 295 295 295 295 296 294
312 313 313 312 312 311 310 310 310 310 309 309 309 309 309 309 310 311 311 312 313 314 315 314 315 315 318 320 315 313 314 312 311 311 311 311 310 312 310 309 311 311 311 311 310 311 309 310 311 314 311 308 311 313 320 326 325 321 313 324 328 317 326 326 311 312 312 310 308 309 315 314 312 315 306 297 296 299 301 299 296 296 295 294 295 294 295 294
311 312 312 312 312 311 311 311 310 310 309 309 309 309 309 309 310 311 312 313 313 315 315 316 316 315 319 318 314 314 314 312 313 312 312 312 310 310 310 310 311 311 311 310 310 310 309 312 312 312 312 309 318 326 324 327 332 328 317 321 330 320 320 320 311 311 312 311 310 309 315 315 313 313 303 296 296 298 300 299 296 296 295 294 294 293 294 294
310 311 311 312 312 312 312 311 311 310 310 310 309 309 308 310 311 311 313 313 315 316 315 317 315 314 317 315 315 317 314 312 314 314 313 312 310 309 310 310 310 309 311 310 311 311 309 313 311 310 317 315 320 328 324 327 334 332 321 318 324 320 314 316 314 311 309 311 312 310 311 311 311 312 306 298 296 298 299 299 298 296 295 294 294 294 294 293
310 310 311 311 311 312 312 311 312 310 310 310 309 309 309 310 311 311 314 315 315 315 315 316 314 315 317 313 315 317 313 312 314 314 313 313 310 310 310 309 307 308 314 315 312 314 312 315 318 321 327 321 320 327 324 328 330 324 322 319 319 317 312 314 315 311 308 310 312 311 311 310 309 310 309 303 297 298 300 298 298 296 295 295 294 294 294 293
310 310 310 310 310 311 312 312 312 311 310 309 309 309 309 310 312 313 312 312 315 316 313 316 317 318 316 313 314 313 312 313 314 313 312 313 310 310 310 309 311 311 316 321 317 317 315 317 323 322 325 323 322 322 322 331 328 318 319 319 317 315 312 312 312 309 307 308 309 309 309 310 309 308 309 306 298 297 299 298 298 297 296 295 294 294 294 294
310 310 310 309 310 310 312 312 311 311 310 311 311 310 312 315 318 320 315 312 315 313 312 316 317 318 316 314 314 313 313 313 312 312 311 311 310 310 310 309 316 317 318 326 323 316 314 318 322 320 322 324 323 319 317 323 318 312 316 315 313 313 311 310 310 309 306 307 310 309 307 307 307 307 307 307 302 299 298 298 298 298 296 295 295 294 294 294
310 310 309 308 309 310 311 311 311 311 311 312 312 311 312 313 315 316 315 316 312 306 311 314 310 313 314 311 313 312 314 314 312 312 310 310 310 311 313 312 316 320 320 323 321 316 316 317 323 327 324 318 318 315 311 313 310 309 312 311 312 312 311 309 307 309 308 307 312 312 309 308 306 306 307 307 307 303 300 299 299 298 297 296 295 295 294 294
311 310 308 308 309 309 310 311 311 311 311 313 311 309 307 307 311 309 309 316 315 305 310 312 308 312 311 309 312 311 313 317 315 313 310 309 310 312 315 314 317 323 319 316 318 322 321 319 324 326 318 311 311 309 308 311 310 311 311 311 313 312 314 313 308 310 309 307 311 313 309 308 307 307 307 307 308 306 303 302 302 300 299 297 296 295 295 294
312 311 309 309 309 308 310 311 312 311 311 312 311 307 306 308 311 309 309 316 318 314 316 317 315 318 315 312 312 311 314 317 316 316 311 309 311 314 315 316 319 322 318 316 321 323 324 325 322 315 311 310 311 308 309 311 310 313 312 312 315 312 314 318 313 311 311 307 309 311 308 307 308 307 307 307 307 307 306 304 304 302 301 299 298 297 295 295
313 311 310 310 308 308 310 311 312 311 311 313 310 306 307 309 310 311 313 315 317 318 318 315 315 320 321 313 310 314 317 315 315 314 309 310 313 312 314 317 319 320 318 320 322 321 323 320 312 309 309 311 312 310 310 311 313 318 315 312 315 314 313 315 313 311 312 310 307 309 311 313 314 310 309 308 306 306 306 305 304 302 301 301 299 298 296 295
311 311 311 310 308 308 310 311 311 310 313 314 310 306 306 309 310 310 313 314 315 318 314 310 313 319 317 311 311 314 315 314 315 311 305 309 313 311 312 314 315 320 320 318 318 320 321 312 306 311 310 310 312 313 315 315 316 322 321 314 313 314 311 312 313 312 316 317 309 309 316 318 317 314 313 311 308 308 307 306 306 303 300 301 300 299 297 296
311 311 312 311 308 308 310 312 311 310 313 312 311 308 306 309 310 309 312 312 313 319 316 312 315 317 312 311 312 312 316 317 310 306 306 307 310 310 313 313 312 318 319 317 318 320 316 308 308 315 313 311 311 314 317 315 315 319 319 314 312 311 310 312 313 312 318 320 309 309 318 317 314 315 317 315 312 312 309 308 308 304 302 301 300 299 297 296
312 312 311 310 308 309 312 314 312 311 314 313 312 309 306 309 309 308 310 309 311 318 319 314 313 314 313 311 309 311 319 318 307 304 306 307 307 309 314 316 313 313 312 314 319 319 312 308 311 314 315 314 313 317 318 314 318 320 314 314 315 312 312 312 310 309 314 313 307 309 313 314 313 314 314 311 311 312 309 309 307 304 303 301 299 299 297 296
312 312 311 310 309 309 312 314 311 310 314 313 309 307 306 308 308 310 310 306 310 318 319 317 312 311 312 308 308 313 314 312 312 308 303 304 307 309 314 318 319 315 310 314 321 317 310 312 315 315 316 317 317 323 319 313 318 319 310 310 311 309 311 311 308 309 310 310 310 309 307 311 315 313 309 306 309 313 311 312 310 307 306 302 300 299 297 296
312 312 310 310 310 310 311 313 311 309 311 310 306 307 307 306 307 311 310 307 314 320 316 315 312 311 313 310 311 314 311 311 313 309 304 304 306 308 312 316 319 315 309 313 320 317 311 311 314 317 318 317 318 316 311 312 315 311 306 310 312 312 311 310 310 311 313 314 316 312 308 313 318 314 310 306 309 314 314 313 311 308 306 303 301 299 297 295
311 311 310 310 310 310 311 312 311 309 310 308 306 307 306 309 311 309 308 308 314 318 313 313 314 314 315 315 315 314 312 313 310 306 307 307 307 308 308 309 314 317 316 317 319 316 310 305 307 313 314 314 315 308 304 310 310 306 309 315 317 316 311 310 312 313 317 319 317 313 309 312 318 315 311 310 313 317 316 314 312 311 311 307 302 299 297 295
310 310 310 311 310 310 312 312 309 309 309 306 306 307 309 317 319 312 309 309 309 314 314 315 314 315 317 319 321 315 312 315 310 307 309 308 308 311 309 309 314 320 324 322 318 317 312 308 309 312 310 310 314 310 304 306 307 308 315 318 319 320 317 317 317 316 319 319 316 311 307 308 315 314 311 312 313 312 315 318 318 318 316 311 304 299 296 294
310 310 310 310 311 310 311 312 309 308 307 305 307 311 314 317 315 312 310 309 309 314 318 320 315 315 317 318 320 316 314 317 312 308 312 311 311 312 312 315 318 319 324 322 320 320 317 314 311 309 307 309 316 316 309 307 308 310 316 319 321 322 323 324 322 318 321 320 311 306 307 308 310 311 311 313 313 310 312 314 316 316 313 309 305 299 295 293
311 311 310 310 311 311 310 312 312 309 306 305 309 315 318 314 309 310 312 310 310 313 318 321 317 316 317 318 322 318 314 318 313 308 312 312 311 312 313 318 318 316 320 318 317 320 320 316 309 308 310 310 314 316 314 314 311 309 314 319 321 323 326 327 323 317 318 319 309 303 308 311 310 312 311 309 310 310 310 309 310 310 307 305 303 299 295 293
312 312 311 310 310 311 310 311 314 310 304 306 311 317 318 313 309 311 313 310 310 314 318 319 317 316 317 319 324 319 315 318 314 309 312 312 312 315 315 315 314 316 320 317 316 320 321 318 314 313 314 311 309 312 317 319 311 308 314 318 319 326 329 326 326 321 318 321 312 304 309 316 314 312 311 310 310 309 308 306 305 303 300 299 300 298 295 292
312 312 311 311 311 311 310 311 314 309 303 306 312 315 313 310 312 314 314 312 312 316 318 317 317 317 317 320 322 319 316 317 315 312 314 314 315 318 318 315 312 316 322 319 319 320 316 318 317 310 308 308 308 310 314 317 312 309 312 314 317 322 322 318 321 320 316 318 314 308 312 316 311 308 308 310 311 306 303 303 302 301 298 298 299 297 294 291
312 312 311 311 311 311 310 310 314 311 305 306 312 314 310 308 316 317 314 313 315 319 318 317 319 319 320 323 322 318 314 314 315 314 315 315 316 318 320 319 313 312 316 317 320 320 316 318 313 305 306 305 304 306 308 313 315 310 309 314 314 313 317 320 318 313 311 315 315 313 314 311 309 310 307 305 307 304 301 301 301 300 298 299 300 297 293 291
314 312 312 312 310 311 311 310 314 311 305 306 312 313 310 310 317 316 314 313 315 321 320 315 316 319 323 324 322 319 315 314 314 315 318 316 316 317 317 319 315 310 312 315 319 320 317 317 312 307 311 305 297 301 305 306 309 311 314 314 309 307 313 318 318 316 314 315 316 315 313 309 310 311 305 303 308 309 305 304 301 298 297 300 301 297 293 290
314 311 311 312 311 312 311 311 312 308 304 306 311 314 314 312 311 311 315 315 313 318 318 313 313 317 322 323 322 320 316 317 317 317 320 318 315 317 315 316 316 311 311 312 317 320 315 315 314 307 308 304 298 303 309 303 301 308 312 307 307 313 314 312 315 318 316 315 318 317 312 310 310 311 309 307 309 311 310 307 301 298 299 300 299 296 292 290
313 311 312 311 311 312 312 312 310 306 305 307 308 312 315 312 310 314 320 318 315 316 315 313 311 311 318 322 323 320 315 317 318 316 318 317 316 317 314 315 316 311 310 312 315 317 313 314 316 305 301 304 303 306 313 308 301 302 304 302 306 313 315 313 312 315 317 315 315 315 312 311 313 316 316 312 310 310 312 310 304 299 298 298 298 295 292 290
312 313 313 310 310 312 312 311 310 309 310 310 308 310 312 312 312 316 317 314 314 314 313 316 313 309 315 319 319 320 317 316 316 315 317 317 316 316 313 314 317 312 310 311 312 314 313 314 316 309 301 305 308 308 311 310 305 304 305 306 305 305 310 313 310 310 315 315 315 317 313 311 314 316 316 315 314 312 312 313 309 303 298 296 295 295 293 290
312 314 314 310 310 311 311 312 312 312 314 314 312 311 312 312 313 314 312 309 312 312 312 319 319 312 313 315 315 318 317 317 316 314 317 317 315 316 312 312 316 313 310 311 311 314 315 314 315 314 308 307 309 307 306 308 308 307 308 309 306 305 309 313 310 309 310 312 317 318 314 311 312 314 316 317 316 313 313 314 310 306 302 296 293 294 292 290
313 315 313 310 310 311 311 313 314 314 315 316 315 314 313 313 314 315 313 310 310 310 311 316 318 314 313 314 315 317 317 320 319 315 316 317 314 313 313 313 313 311 312 314 312 313 317 316 314 314 314 310 306 302 301 304 305 306 308 309 307 306 309 313 312 311 309 310 311 313 314 312 310 313 318 317 316 314 311 310 308 306 302 296 293 293 291 290
315 314 310 308 311 311 311 313 314 314 315 315 315 315 314 315 315 314 313 312 310 310 310 311 312 312 312 313 315 316 316 318 319 317 317 318 315 313 313 313 311 311 313 314 312 311 314 316 313 312 315 314 306 301 300 301 302 306 309 307 306 306 308 310 310 311 313 312 309 310 312 311 311 315 315 310 308 306 302 301 303 305 301 296 293 292 291 290
315 312 308 307 310 311 312 312 312 313 315 314 314 315 314 314 315 314 313 312 312 312 310 309 309 310 311 312 313 314 313 313 315 315 315 318 317 313 312 313 311 312 313 313 312 312 313 315 315 313 315 316 311 307 306 303 302 306 308 306 306 306 307 309 308 308 311 311 309 311 311 310 311 311 306 303 303 302 300 297 298 302 301 297 293 291 290 290
315 313 309 307 308 310 312 311 310 311 312 313 314 315 314 314 314 313 312 312 311 312 311 311 312 311 310 312 312 311 312 311 311 312 313 315 314 310 310 312 312 310 311 312 311 311 313 316 315 312 312 312 310 310 312 310 305 304 307 306 305 305 306 308 308 308 309 309 308 310 311 310 311 308 304 304 304 303 302 299 295 296 297 296 293 291 290 289
316 315 312 308 308 310 311 311 311 311 310 312 313 312 313 313 312 312 313 312 311 311 311 313 314 311 310 311 310 310 311 310 310 312 313 315 315 310 307 308 309 310 312 313 310 311 318 318 312 312 312 310 309 308 312 313 309 307 308 307 304 305 305 306 309 309 308 308 308 309 309 310 310 309 308 308 306 304 304 303 300 296 294 293 293 292 290 289
316 317 314 310 309 310 310 311 312 311 309 311 312 312 312 312 311 311 312 312 312 311 311 311 311 311 311 311 310 310 310 310 310 310 311 314 313 309 304 303 304 307 309 311 310 312 318 316 310 311 311 309 310 309 311 313 311 309 309 307 305 305 305 306 308 308 308 309 309 309 309 310 310 309 308 309 308 307 307 307 306 302 298 295 293 292 290 289
316 317 316 314 313 312 311 311 312 311 311 310 310 311 312 311 311 311 311 312 312 311 311 312 312 311 311 311 310 310 310 310 311 310 310 311 311 309 307 304 303 304 307 308 307 309 314 313 310 312 311 310 310 309 310 311 309 308 309 308 306 305 304 306 306 306 307 309 309 308 309 310 309 308 309 309 308 309 308 308 308 305 301 297 294 292 291 289
316 317 316 315 315 315 312 311 312 312 312 310 309 310 310 310 310 310 312 312 311 311 311 312 312 311 311 311 310 310 310 310 311 311 311 311 310 311 310 309 306 303 305 307 307 308 310 311 311 310 310 310 310 309 310 309 308 308 308 308 307 305 304 304 305 305 306 307 307 308 308 309 308 308 309 308 309 309 308 308 307 305 302 298 295 293 291 289
317 316 316 315 315 315 314 312 312 312 312 312 311 311 310 310 309 309 311 312 311 311 311 311 311 311 311 312 311 310 310 310 310 311 311 312 312 312 311 312 311 305 303 305 307 307 308 311 313 312 311 312 311 310 311 310 309 309 308 308 308 306 305 304 304 304 305 305 306 306 307 308 307 308 308 308 308 308 307 307 307 305 303 300 296 294 292 290
316 315 315 316 314 314 314 313 312 312 312 312 312 312 311 310 310 309 309 309 310 311 311 311 311 310 311 312 311 310 310 310 310 311 311 313 313 312 312 314 315 310 305 305 307 308 307 310 313 313 312 312 311 312 312 311 309 309 309 309 308 308 307 307 306 306 305 305 306 306 307 307 306 307 307 307 307 307 307 307 306 305 305 302 298 295 293 291
315 313 313 316 315 314 315 314 313 313 313 312 312 312 312 312 311 311 311 310 309 309 310 311 311 311 311 311 310 310 310 310 310 310 310 311 312 311 312 313 314 313 309 306 306 307 308 309 311 311 311 311 312 313 312 310 310 311 311 310 309 309 308 308 308 308 307 306 306 307 307 307 306 307 307 307 307 307 307 307 306 306 305 302 298 296 294 292
Wind_Speed
10 11 12 12 13 14 15 16 17 18 19 20 21 22 23 23 23 22 20 17 15 13 7 1 5 5 3 5 3 4 5 5 4 6 6 4 5 5 6 7 7 9 9 8 8 2 1 4 6 7 5 4 4 1 3 3 3 4 3 3 1 3 4 5 7 7 4 4 5 6 5 7 5 3 2 2 5 3 2 3 3 3 3 2 6 14 23 23
10 11 11 12 13 14 15 16 17 18 19 20 21 22 23 23 23 23 20 16 14 14 9 3 4 6 5 6 4 4 7 6 3 6 7 4 5 6 6 7 6 7 9 8 8 6 4 4 6 7 4 2 2 1 2 2 3 3 4 3 2 5 4 5 7 6 2 2 6 5 3 4 5 6 5 3 1 0 3 1 4 3 2 3 8 14 18 20
10 11 12 12 13 14 15 16 17 18 19 20 21 22 23 24 24 24 22 16 12 13 11 5 3 6 7 7 5 5 8 5 1 2 3 4 4 5 6 7 6 6 8 7 7 6 4 1 2 3 4 3 2 2 3 3 2 2 4 3 5 6 4 4 6 7 3 2 5 3 2 2 3 5 4 4 4 3 6 6 3 4 6 6 7 11 15 17
10 11 12 12 13 14 15 16 17 18 19 20 21 22 23 24 25 25 23 17 12 12 12 8 3 5 8 8 5 5 7 3 1 2 1 2 3 4 5 7 7 6 6 6 6 5 4 4 3 3 4 2 4 3 3 3 1 1 4 3 6 3 2 4 6 6 2 2 4 3 2 2 3 3 3 7 5 5 8 10 11 12 13 12 9 11 16 16
9 11 12 13 13 14 15 16 17 18 19 20 21 22 23 24 25 26 24 18 13 11 12 10 5 3 7 9 5 5 6 3 2 2 0 1 2 4 5 7 8 5 5 6 5 4 4 6 6 5 4 2 5 4 2 2 1 1 1 3 5 4 2 5 4 4 3 5 4 4 3 4 3 2 5 10 7 7 6 9 12 10 14 16 13 13 14 14
10 11 12 13 13 14 15 16 17 17 18 19 20 22 23 24 24 26 26 20 14 11 11 9 6 4 4 8 6 3 3 1 2 1 1 1 2 5 5 7 8 6 5 5 6 6 5 7 6 5 3 3 3 3 0 4 2 1 2 2 3 4 2 3 1 3 5 7 5 5 4 4 5 4 5 10 12 7 3 7 8 8 12 15 14 13 11 10
10 11 12 13 14 14 15 16 17 17 18 19 19 21 22 23 24 25 26 22 16 13 11 8 6 4 1 5 5 2 3 3 3 2 2 1 2 4 5 6 8 6 4 6 8 5 5 7 6 4 3 3 0 1 1 4 3 4 0 2 2 4 4 3 0 2 5 6 6 4 3 6 7 5 2 9 14 5 3 3 7 10 13 14 11 10 9 11
11 11 12 13 13 15 15 16 17 17 18 19 19 20 21 23 23 24 26 23 17 14 11 7 4 2 1 3 2 3 2 4 2 2 3 2 3 5 5 5 7 6 5 9 8 3 4 6 3 3 3 1 3 1 2 3 4 4 2 2 1 3 6 4 1 1 4 4 2 5 4 6 8 3 1 11 13 2 2 3 8 11 12 11 10 9 9 10
12 12 12 13 14 15 16 17 17 18 19 19 20 20 21 23 23 24 25 24 18 14 12 7 2 2 3 3 4 2 4 3 1 2 3 3 4 5 4 5 7 6 7 9 7 4 3 2 2 3 2 2 3 1 3 3 2 1 3 3 2 3 5 3 3 4 4 3 3 6 5 6 3 1 5 11 8 4 5 7 8 10 11 10 9 9 9 9
13 13 13 14 14 15 16 17 18 19 19 20 21 21 21 22 23 24 25 25 18 14 12 6 3 3 4 2 6 1 4 1 1 2 2 3 3 4 4 5 6 6 7 7 7 7 4 4 4 4 5 3 2 1 1 1 1 2 2 3 3 3 5 2 4 4 1 2 5 7 6 4 2 1 5 5 4 7 8 7 7 10 10 10 8 8 10 10
13 13 14 14 15 15 16 18 18 19 20 20 21 21 22 22 24 24 25 26 17 12 11 6 3 4 4 3 5 3 4 1 1 2 2 3 2 3 4 5 6 6 6 7 7 6 4 6 7 4 2 1 1 1 0 1 3 2 0 3 4 4 4 1 3 4 0 2 6 7 4 2 2 2 6 3 6 8 9 9 8 9 9 9 8 7 9 10
14 14 14 15 15 16 16 18 19 20 21 21 22 22 22 22 24 24 26 26 16 10 11 6 3 4 2 2 3 6 4 2 2 2 2 2 1 3 5 5 5 6 4 5 5 4 5 5 7 4 1 2 1 2 1 2 2 1 2 2 7 7 4 1 2 3 2 2 5 6 3 4 5 8 5 4 7 6 8 10 8 9 8 7 8 7 7 10
16 15 15 16 16 16 17 18 19 20 21 22 23 23 23 23 24 25 26 25 15 9 9 7 5 4 1 1 4 6 5 4 3 2 1 1 2 3 5 5 5 6 5 7 6 5 5 3 5 4 2 4 0 1 2 3 2 1 3 2 5 7 4 1 1 0 3 3 3 4 4 6 10 12 5 6 9 8 7 9 8 8 7 7 7 7 7 10
17 17 16 16 16 17 17 18 19 20 21 23 23 24 24 24 25 25 27 23 13 8 8 6 4 3 2 3 4 4 6 6 4 3 1 1 2 3 4 5 5 6 7 9 8 6 5 3 5 5 2 3 0 1 3 6 3 1 2 2 3 3 4 5 0 3 4 1 1 3 3 8 9 10 6 8 10 11 10 10 9 8 7 7 7 8 8 9
18 19 18 17 17 17 18 19 20 21 22 23 23 25 24 24 26 27 25 17 8 7 6 3 3 3 1 4 4 3 6 6 4 4 1 1 2 2 3 4 5 7 8 8 7 6 4 4 5 4 1 2 3 3 3 5 4 3 2 3 3 0 5 8 2 5 4 1 3 3 4 10 10 8 5 8 9 11 11 10 10 10 10 9 8 8 8 7
19 19 19 19 18 18 18 19 20 21 22 23 23 24 23 24 26 26 19 10 6 6 3 1 5 5 1 4 2 2 5 5 4 4 3 0 1 2 4 5 6 6 6 6 7 5 4 4 4 2 0 1 4 4 3 4 4 4 1 3 4 2 4 7 3 2 2 0 1 2 4 7 8 5 2 7 9 10 10 9 11 12 11 10 8 8 7 7
20 20 20 20 19 18 18 19 19 21 22 23 23 24 23 23 23 19 10 4 2 2 1 2 5 4 2 3 1 3 3 4 4 3 3 1 2 3 4 5 5 5 6 5 4 3 3 4 1 1 2 3 3 4 3 4 4 4 2 2 4 3 3 5 4 3 1 2 3 4 5 10 13 6 3 7 9 10 10 11 13 12 11 10 8 8 8 9
21 21 21 20 19 18 18 18 19 20 22 22 21 23 22 18 15 10 4 1 2 2 2 1 3 2 3 2 1 2 1 2 3 3 2 2 2 3 3 4 4 4 5 4 2 2 2 3 2 1 3 4 2 5 2 4 3 4 3 3 4 3 4 5 5 3 2 1 5 4 6 14 19 13 6 8 10 12 14 13 12 11 10 10 9 10 10 11
21 21 21 21 19 18 17 17 17 19 21 21 21 21 15 10 7 3 1 2 2 1 1 2 2 2 3 3 2 0 2 2 3 2 3 3 2 4 5 5 4 4 3 1 2 2 1 2 3 0 2 3 3 5 7 8 6 5 5 4 4 5 6 6 6 5 1 2 7 7 9 13 18 17 10 8 10 13 13 11 9 9 9 10 10 10 11 13
20 21 21 21 19 18 17 16 16 17 18 20 21 17 7 4 5 3 3 1 4 3 2 5 4 4 4 3 2 1 2 1 2 2 3 4 4 4 3 4 5 4 2 3 2 2 4 0 3 5 7 7 8 7 6 5 6 4 4 4 5 6 7 6 4 5 1 1 9 9 9 13 16 19 15 7 9 12 12 11 11 10 10 11 12 13 14 14
19 21 21 20 19 17 15 15 14 14 15 16 15 10 1 1 2 4 5 5 7 4 5 7 5 6 7 3 2 2 1 1 1 2 5 4 4 3 1 2 3 0 2 2 1 2 4 2 7 9 10 7 6 6 6 5 5 3 4 4 5 5 8 8 4 4 1 3 6 7 7 13 15 17 17 8 8 12 13 12 14 14 13 11 13 16 15 11
19 21 21 20 19 16 14 13 13 13 13 11 9 3 3 3 2 2 1 5 9 3 4 4 2 6 6 4 4 2 2 2 4 3 6 5 3 3 3 2 4 4 2 2 1 4 3 6 11 8 6 4 5 5 7 5 5 3 2 2 4 4 5 7 4 5 2 3 5 8 8 14 16 17 20 15 12 12 11 14 16 14 13 13 14 15 13 10
18 21 21 21 20 17 13 11 11 11 10 8 5 1 3 2 3 3 2 2 8 4 2 2 3 4 3 4 6 5 2 4 4 5 8 8 2 3 4 4 4 3 0 4 5 2 2 7 8 5 7 7 5 4 7 5 2 3 3 2 5 3 1 5 4 5 3 2 4 8 10 13 14 14 18 15 10 9 9 13 14 11 13 14 14 13 13 14
17 20 21 21 21 18 12 10 10 8 7 5 3 1 3 3 4 3 1 1 5 5 3 4 3 4 4 2 7 9 3 4 3 4 7 10 4 2 4 5 4 2 4 6 7 6 7 6 2 6 5 6 4 3 6 5 2 4 5 6 6 5 5 6 4 5 5 3 2 6 10 11 7 8 12 6 3 5 6 9 12 10 10 10 9 11 13 15
17 18 18 21 21 16 9 9 7 3 4 3 1 1 3 4 4 2 1 1 3 6 4 3 2 4 5 4 6 7 2 2 4 3 5 8 6 3 1 2 3 4 5 5 6 6 9 4 5 5 2 4 6 4 5 7 3 4 5 9 9 8 7 5 5 6 5 4 3 4 6 9 2 4 9 4 3 6 3 6 12 9 8 8 9 11 11 12
15 15 17 21 20 13 7 5 4 3 3 2 3 2 3 4 4 2 2 3 3 6 2 2 2 4 6 3 2 4 3 3 3 1 4 4 3 3 2 1 0 3 5 5 3 4 3 1 4 5 4 4 5 4 6 7 5 3 4 6 6 4 1 1 4 4 2 3 3 4 1 9 4 3 9 7 6 10 6 8 13 9 7 9 11 10 9 10
14 14 17 19 16 11 4 2 3 2 1 2 3 3 3 3 4 3 2 3 5 4 3 1 0 4 5 2 1 4 3 4 1 2 2 2 1 2 2 3 1 2 4 4 1 3 2 3 4 4 5 5 5 5 6 8 7 3 4 4 6 6 3 3 2 0 4 3 4 2 4 8 9 5 7 6 6 12 12 12 14 9 9 11 11 10 9 11
14 13 15 16 12 8 5 4 4 2 1 1 3 3 3 3 3 0 3 2 5 1 2 1 1 3 1 1 3 4 2 2 2 1 2 2 0 3 1 6 6 4 3 5 5 4 3 4 4 5 4 3 6 5 8 10 4 5 5 5 6 6 4 4 4 2 2 3 4 5 6 4 10 6 2 1 4 9 12 14 14 10 9 11 11 10 10 11
14 12 13 13 11 9 7 7 5 2 1 1 2 2 4 5 2 3 3 4 4 1 1 0 2 1 2 2 1 2 1 2 1 3 3 2 0 3 2 6 6 5 1 3 6 4 1 4 7 7 5 5 4 2 5 8 3 4 6 5 5 5 4 4 3 1 2 3 7 7 8 4 8 4 3 2 3 8 11 11 11 10 8 8 9 9 9 9
14 12 12 11 9 9 6 7 8 5 2 1 3 3 5 3 2 2 3 6 2 0 1 1 2 2 4 4 2 2 1 2 1 2 3 1 3 6 1 3 6 4 1 3 4 4 2 1 3 4 4 5 4 3 1 4 4 4 6 4 5 5 4 4 2 3 2 6 9 7 12 8 6 3 5 4 5 7 8 7 8 9 8 7 7 8 8 8
14 12 12 11 9 8 4 4 5 6 5 3 5 5 4 2 3 4 7 6 2 2 2 1 1 3 6 5 3 1 2 2 1 2 1 1 2 4 1 1 3 3 3 4 5 4 4 1 2 2 2 5 6 5 3 3 3 4 4 4 4 4 4 4 4 4 0 7 6 3 8 8 7 6 5 5 7 5 7 6 7 9 9 7 6 6 7 8
15 13 12 12 11 9 7 4 3 2 6 7 7 5 4 0 2 5 4 3 2 3 4 3 2 3 5 3 2 3 3 2 2 4 4 3 2 3 3 5 5 1 3 5 4 5 3 4 3 1 2 4 6 4 3 4 3 4 4 4 3 3 3 3 3 1 3 8 3 1 3 5 11 11 8 10 10 8 9 8 8 9 10 6 5 6 6 7
17 15 11 12 12 11 11 9 6 4 6 10 6 4 6 3 6 5 4 4 3 2 2 2 1 3 5 3 2 3 3 2 3 3 2 3 3 5 6 5 6 2 2 4 1 3 4 5 1 2 3 3 7 5 2 2 2 5 5 4 3 2 0 3 4 2 5 7 3 3 3 4 9 8 11 16 15 12 10 9 9 9 8 6 5 6 6 7
17 16 12 11 13 13 12 11 7 5 6 8 4 5 4 7 5 6 8 8 3 2 2 3 3 3 4 3 4 4 3 4 4 5 3 3 2 5 6 6 6 3 2 2 1 2 3 7 3 6 3 4 9 6 4 5 4 4 5 5 5 5 4 5 4 4 7 6 3 3 2 4 4 4 6 11 10 9 6 6 7 7 6 4 4 6 7 8
16 16 13 12 14 14 13 12 7 4 6 5 4 4 7 9 3 4 7 6 2 1 2 2 4 4 2 3 3 3 4 4 3 5 4 4 4 5 5 7 8 5 4 3 2 2 3 8 5 2 0 5 6 2 4 7 3 2 3 5 3 5 5 3 3 4 1 5 4 3 4 6 3 4 7 4 5 7 4 5 7 6 4 4 4 6 7 8
16 17 15 14 16 16 14 14 11 7 5 4 4 7 10 7 4 5 5 5 5 4 4 1 3 4 4 3 3 4 2 2 2 3 4 4 4 5 4 5 9 11 9 6 3 2 2 6 3 2 1 2 4 2 2 2 3 2 3 4 4 4 5 2 3 1 4 3 6 2 6 9 3 5 7 3 5 8 5 7 9 6 2 4 6 7 7 8
19 16 13 15 18 18 16 16 13 9 4 3 7 10 7 5 6 6 5 5 4 6 7 4 3 5 6 4 4 6 3 1 2 3 4 3 4 6 7 4 6 15 16 8 3 4 3 4 3 3 1 2 1 2 1 1 3 5 3 5 3 2 4 3 1 3 3 3 6 4 9 13 8 6 2 3 6 8 7 10 9 4 2 5 8 8 8 8
19 11 9 16 21 19 18 19 16 9 3 3 11 12 4 4 6 5 6 5 3 5 6 7 6 6 7 6 4 6 7 4 4 5 4 4 5 5 8 5 6 13 16 10 4 3 3 3 4 2 2 2 2 2 0 3 2 4 3 3 3 3 2 2 2 2 2 3 6 8 11 13 9 6 5 6 9 8 9 10 8 6 7 9 10 9 8 8
15 5 6 14 21 21 21 21 16 7 3 6 13 11 4 4 4 3 6 6 4 4 6 7 6 4 5 6 4 5 7 7 7 6 4 4 5 4 8 7 6 8 10 11 7 3 3 3 4 0 2 1 2 2 5 3 1 2 1 1 1 2 4 3 3 3 3 3 6 9 12 12 7 7 8 10 10 10 10 9 9 10 11 11 10 9 8 9
12 3 3 9 19 24 26 20 10 5 5 9 10 7 2 1 4 6 8 6 3 3 5 6 5 4 4 5 4 4 6 6 7 5 4 5 4 5 7 7 5 4 2 4 5 1 3 3 4 1 2 1 4 5 8 9 7 4 3 2 2 1 2 1 1 3 4 4 4 4 10 16 6 7 9 10 8 11 11 9 9 10 11 12 10 9 9 10
9 4 3 13 23 28 25 13 5 5 5 7 8 5 1 1 4 5 6 5 4 2 2 5 6 6 6 5 4 3 4 4 6 5 5 5 5 5 8 9 9 8 4 3 3 4 3 3 5 3 2 5 6 2 3 7 8 7 7 7 8 6 4 1 5 3 3 4 5 4 8 18 6 7 7 7 7 9 11 11 10 9 11 12 10 11 11 10
5 5 5 21 34 33 21 7 5 4 4 7 7 4 3 3 3 4 4 4 4 3 0 3 7 8 6 5 4 5 6 4 6 7 5 6 9 9 7 9 11 12 9 4 3 3 4 3 4 6 7 7 4 1 2 2 1 2 5 5 7 7 7 6 8 5 3 2 2 4 5 17 7 7 6 6 7 9 9 9 9 8 10 11 10 10 10 10
5 4 7 26 42 34 15 7 7 5 6 8 7 6 4 2 2 4 6 6 5 4 4 5 7 8 7 4 4 5 7 6 7 8 5 6 10 10 7 11 12 10 7 3 1 1 2 2 4 7 6 3 3 3 2 3 3 2 6 5 7 8 9 8 6 3 3 4 3 4 6 17 7 5 4 4 4 5 6 7 8 8 8 9 9 9 9 10
6 3 3 23 42 32 12 8 9 8 9 8 10 12 7 3 5 6 6 8 7 6 7 9 6 5 6 5 6 8 8 7 8 8 7 7 7 6 9 14 13 9 6 5 5 5 3 3 3 3 5 5 4 3 2 2 1 4 5 4 7 11 8 2 1 2 4 7 8 5 12 18 6 4 4 2 2 6 7 6 8 8 7 8 8 8 9 9
4 2 2 14 29 22 9 8 8 7 12 13 13 14 10 6 7 10 10 10 8 4 4 6 4 4 6 5 5 8 9 9 9 6 6 8 4 2 7 13 15 12 7 4 6 8 6 5 5 6 9 10 10 7 4 3 3 2 4 6 10 14 12 6 3 5 8 9 10 10 19 18 12 8 4 2 4 8 9 7 7 8 8 7 7 7 8 9
4 3 2 5 10 10 8 7 5 5 9 12 10 9 12 13 7 6 9 10 8 5 3 4 3 4 6 7 7 11 11 11 9 4 5 6 3 2 2 8 12 9 1 1 7 8 4 4 9 13 15 14 14 12 4 6 5 6 9 12 14 15 15 12 8 8 10 9 9 19 22 16 22 27 15 7 9 10 11 11 8 8 9 8 8 9 9 8
5 5 6 6 4 6 8 8 8 7 5 7 6 7 13 16 9 3 8 10 9 9 7 7 6 6 9 12 12 12 11 9 8 9 13 10 4 2 2 2 5 3 4 2 4 5 3 6 14 19 20 18 18 17 7 9 8 11 12 15 17 16 15 14 14 17 14 9 13 23 20 15 26 32 21 15 15 13 15 16 11 9 10 9 9 8 8 9
6 5 6 8 6 7 11 12 14 13 10 9 8 7 9 13 13 10 8 5 5 10 9 8 12 17 19 17 12 10 9 8 10 15 18 15 7 2 1 1 2 2 2 1 3 2 4 9 15 16 18 18 19 19 10 7 7 9 10 16 18 16 18 18 21 27 22 14 17 24 21 22 29 27 20 19 17 14 18 17 10 7 9 8 8 9 10 10
6 2 4 8 7 9 13 16 16 16 18 15 10 10 12 17 19 14 6 4 5 11 13 13 18 23 24 17 10 8 8 10 14 16 15 12 7 4 3 3 2 1 3 2 2 2 4 8 13 13 14 17 20 20 11 7 10 10 12 19 18 15 18 22 26 30 24 19 23 28 27 29 30 23 19 20 17 12 14 15 10 8 9 8 9 11 11 11
8 3 6 7 7 9 10 11 12 12 15 15 11 13 16 19 22 15 7 9 10 8 12 20 23 18 15 14 12 14 17 19 21 18 10 8 6 5 5 7 3 1 2 4 2 2 4 7 10 9 10 16 20 16 10 10 13 13 17 25 23 15 17 24 26 23 17 18 26 28 26 27 27 21 17 19 17 12 14 18 17 14 12 10 11 11 11 12
15 6 6 5 6 10 10 9 10 9 10 12 13 16 17 20 25 19 8 9 13 12 13 21 24 13 7 11 17 23 27 26 24 18 8 7 8 7 6 7 7 5 4 4 2 3 5 5 3 2 7 15 15 9 8 7 6 10 21 31 28 20 19 23 21 16 15 20 24 22 19 21 24 19 15 16 16 14 18 21 19 17 14 11 12 12 13 13
17 6 5 5 6 9 10 9 10 10 9 12 17 20 19 21 23 17 7 7 16 20 16 16 18 12 7 14 23 28 28 24 21 18 10 6 6 6 4 5 8 8 7 6 4 3 5 4 4 4 9 13 7 2 6 5 1 10 20 25 24 21 22 22 19 18 22 21 17 16 19 22 21 16 16 19 18 16 19 19 16 16 13 10 12 14 13 13
Wind_Direction
13 11 8 9 9 11 12 13 13 13 13 13 15 15 17 17 16 15 12 10 11 13 11 275 222 231 235 189 150 22 9 14 34 71 72 41 20 18 9 8 10 8 11 7 15 56 347 0 353 12 102 104 20 287 13 25 65 53 83 87 128 180 202 187 178 193 176 192 205 208 187 144 164 178 160 63 42 55 72 24 336 345 8 106 125 133 147 157
11 8 5 4 3 5 6 7 8 8 9 9 10 11 13 14 14 12 10 8 7 9 7 339 240 229 223 209 217 342 348 340 10 58 54 38 20 16 11 11 10 11 17 15 19 38 33 348 334 14 71 71 357 337 32 20 62 81 114 77 237 200 208 196 173 190 193 170 188 203 178 171 195 162 154 171 247 254 146 264 338 12 17 105 130 138 150 161
8 7 4 2 1 1 360 1 2 3 5 6 5 6 9 10 11 10 9 7 6 6 3 353 265 234 221 224 237 330 342 340 358 36 27 26 20 11 11 13 11 11 19 22 22 26 39 1 311 32 54 62 1 9 41 16 44 147 113 76 245 218 232 227 176 196 239 148 165 197 153 198 226 147 158 177 175 211 199 204 193 200 200 174 162 154 157 165
5 3 2 1 359 358 357 356 356 358 1 2 2 2 3 6 8 8 8 6 5 6 1 356 314 247 228 231 238 314 344 17 221 247 13 18 14 3 5 13 11 12 19 30 33 28 39 54 78 67 64 60 338 19 56 346 6 136 105 148 230 189 246 243 188 198 223 128 150 151 119 226 229 146 170 151 147 243 236 216 201 196 184 176 185 173 166 168
0 359 358 357 356 354 353 352 351 353 354 357 359 358 359 1 3 5 6 3 360 4 1 354 335 282 235 228 233 308 357 52 232 241 48 1 6 354 353 6 7 11 19 30 42 56 45 35 53 47 49 59 348 28 68 303 79 77 78 201 217 145 233 251 187 176 145 104 102 123 174 201 159 163 184 163 189 229 224 224 213 195 177 173 177 175 172 170
354 353 354 352 351 350 348 347 346 346 347 350 353 354 354 355 358 1 3 1 353 353 359 353 341 325 242 219 228 315 37 134 249 221 241 301 357 349 352 357 7 13 15 28 41 61 49 25 47 51 40 54 10 40 2 303 38 60 311 280 227 180 238 271 159 176 144 119 138 173 200 148 136 248 209 184 220 225 230 237 204 182 175 168 160 164 171 173
349 349 348 346 345 344 343 342 341 341 341 343 346 349 349 349 353 355 358 359 349 344 352 351 342 334 236 206 224 26 68 243 255 207 251 304 315 339 0 358 9 10 7 25 29 63 70 39 58 107 77 63 173 155 287 307 23 81 98 298 224 191 231 266 58 154 147 161 197 173 141 149 179 235 173 204 232 238 314 253 162 152 156 156 153 163 174 173
343 344 342 341 338 337 337 336 337 337 337 338 340 344 345 345 347 349 353 355 348 339 345 345 335 349 143 172 183 15 340 249 235 227 260 287 300 331 353 2 15 12 40 39 32 96 93 51 88 143 72 72 171 134 340 336 18 74 144 252 228 212 248 275 334 179 182 209 199 125 158 206 202 196 164 229 236 223 56 107 125 134 143 156 165 171 175 172
338 338 337 336 333 333 332 332 333 334 335 335 336 338 342 342 342 345 347 350 347 335 342 343 305 144 138 128 97 17 283 235 205 257 270 274 294 326 343 13 22 22 57 51 41 72 81 81 173 168 132 160 153 84 352 4 335 176 159 217 235 270 282 288 244 227 208 214 134 150 214 260 252 264 265 242 218 150 115 115 128 141 152 170 174 177 175 173
331 331 332 331 331 331 329 330 330 332 332 332 333 334 338 338 338 340 341 346 344 330 338 339 271 182 173 111 83 28 260 213 274 273 293 283 292 325 350 23 23 33 62 58 48 55 78 167 166 141 132 127 130 107 357 58 167 191 174 222 231 280 295 279 242 255 222 225 181 183 228 272 335 311 262 254 163 143 129 131 153 157 168 178 179 185 181 182
324 325 325 325 327 328 328 329 328 329 330 330 332 331 334 335 334 335 337 342 339 328 337 332 280 225 200 105 109 209 237 189 267 291 297 283 312 352 26 31 23 44 66 68 65 64 95 154 142 120 110 121 137 55 294 171 126 155 190 274 290 319 307 283 274 280 241 231 186 173 232 274 19 256 241 210 154 157 145 156 175 173 181 182 183 190 188 195
320 321 321 320 321 323 325 325 325 327 326 327 329 328 332 332 331 331 332 337 334 323 335 330 282 225 196 69 166 215 221 196 243 277 284 289 48 47 46 31 27 46 62 85 91 86 101 145 122 93 9 144 149 18 157 163 104 119 66 321 302 351 4 240 281 272 178 205 175 154 271 260 203 232 241 151 157 153 149 169 183 186 190 187 192 195 199 204
316 319 319 318 318 320 321 322 323 324 323 325 326 326 330 329 328 327 327 332 326 308 329 328 275 220 145 320 225 215 218 213 227 245 279 8 77 77 52 35 42 51 63 96 111 105 105 141 108 100 124 105 108 274 104 48 47 251 56 55 312 355 358 252 46 25 158 185 176 149 287 263 218 232 234 147 155 141 159 188 190 196 197 194 201 199 207 208
312 312 314 315 316 317 317 319 320 321 321 322 324 325 327 328 325 323 324 326 318 294 315 325 262 196 139 263 247 223 224 215 211 228 230 49 90 99 55 41 59 67 72 90 104 103 101 118 96 94 96 86 123 258 33 10 18 327 349 47 9 353 290 286 352 140 158 190 62 123 253 269 253 246 213 169 167 159 180 202 195 202 202 200 206 203 210 211
308 308 309 310 313 314 314 316 318 319 320 321 323 324 325 327 322 320 322 320 308 289 306 312 207 154 61 280 269 244 233 218 215 224 203 52 85 111 54 56 88 84 81 85 94 96 93 105 89 79 324 3 48 54 13 349 6 26 331 308 344 308 275 301 276 170 184 306 29 118 228 273 276 269 214 176 176 178 192 204 200 207 206 203 208 205 211 213
306 306 306 307 308 311 312 314 317 318 319 321 324 323 325 326 318 318 321 315 292 284 299 244 189 142 43 274 278 275 237 217 215 219 211 238 65 97 81 89 96 87 88 87 94 95 69 74 71 65 170 42 65 78 40 4 344 4 38 254 278 248 291 317 312 220 236 68 355 200 231 277 277 280 234 180 183 193 206 211 209 212 208 205 208 207 208 210
306 306 306 306 305 309 312 313 316 318 318 322 324 325 327 324 316 318 327 323 297 268 153 162 167 138 284 249 263 287 240 196 198 202 204 161 61 82 103 96 84 83 87 82 94 88 34 49 58 313 45 51 77 86 39 348 308 326 11 251 254 236 259 303 308 317 46 157 223 226 234 259 263 260 194 192 192 198 214 218 216 215 210 208 208 207 209 207
307 306 306 305 304 309 313 313 316 319 319 322 327 327 326 321 316 322 334 5 64 79 101 97 110 115 283 263 236 268 194 172 186 180 184 162 74 72 105 104 100 83 53 38 51 52 7 26 59 353 17 11 43 89 123 242 222 250 260 249 278 271 242 254 274 296 52 221 233 224 241 257 266 267 220 198 196 203 218 221 219 217 209 210 210 209 212 211
306 307 306 306 305 307 311 314 316 319 321 324 330 331 326 325 330 331 34 75 104 108 179 228 147 150 252 277 276 269 94 139 175 184 174 151 114 94 98 92 95 88 58 17 334 22 58 32 50 65 297 275 216 156 190 210 185 201 210 193 231 263 260 238 237 264 341 292 259 236 240 256 268 272 254 209 197 213 225 226 226 220 210 210 213 214 212 214
305 305 305 306 306 306 309 312 315 320 325 330 338 344 344 358 2 336 346 1 207 195 215 229 217 235 266 288 286 161 135 161 187 187 156 153 142 115 91 55 51 58 104 177 258 21 87 133 240 220 230 232 220 196 185 179 151 145 154 182 226 237 268 262 237 282 6 227 267 249 241 256 263 269 267 225 193 222 229 228 232 220 213 211 211 216 214 215
305 303 303 306 307 307 307 309 314 319 325 333 345 356 46 132 352 310 319 296 260 237 249 244 219 255 266 262 250 179 150 285 270 182 158 161 126 136 257 32 80 289 263 183 214 11 64 221 236 223 222 217 202 173 137 129 130 121 173 217 262 234 257 273 263 313 347 175 267 277 262 260 258 266 271 242 198 227 222 220 233 222 217 217 212 218 216 211
304 302 304 307 308 305 303 307 312 316 321 332 348 14 164 174 193 227 334 300 290 270 242 261 236 263 261 234 229 142 90 279 295 272 176 151 86 186 244 64 142 211 294 113 123 356 6 246 241 223 191 121 92 131 126 125 138 129 154 194 269 249 274 292 312 353 353 177 271 295 285 269 261 262 267 254 231 238 222 215 232 223 215 220 216 218 212 201
300 302 306 309 309 305 301 304 307 312 315 323 340 355 172 162 166 177 125 289 291 290 239 242 216 240 258 246 210 159 179 227 262 276 183 152 108 193 165 118 160 190 123 165 175 184 247 255 245 187 141 114 86 112 118 105 137 164 157 187 256 265 297 283 309 344 306 230 274 289 282 269 261 256 261 263 249 246 234 225 236 225 218 224 217 214 206 200
296 303 308 309 310 306 302 306 307 305 304 308 321 261 185 168 159 164 116 303 287 292 253 214 201 203 202 212 179 166 201 208 202 261 177 154 145 165 163 154 152 194 230 194 174 199 237 242 154 111 126 139 139 141 140 152 247 246 204 207 241 251 234 239 293 329 316 320 318 305 294 275 249 239 255 285 328 265 244 242 250 234 225 234 224 215 208 203
294 300 305 309 311 307 304 311 311 301 298 295 244 206 163 173 171 146 36 11 287 296 285 224 210 205 185 128 151 166 159 221 216 222 175 160 152 147 182 165 156 215 219 162 156 230 258 233 132 127 132 141 160 192 190 177 208 294 236 214 225 236 245 271 337 346 346 331 331 13 326 287 259 218 254 286 332 277 239 242 257 242 222 229 228 222 209 203
296 294 299 307 310 308 304 303 312 334 318 267 202 186 159 181 190 173 64 43 286 277 275 204 182 180 171 125 149 154 115 275 263 154 154 169 168 139 150 166 91 215 182 133 156 232 266 11 96 145 151 143 175 232 232 171 141 291 256 203 201 188 197 300 1 356 306 262 303 56 42 276 274 196 251 262 275 278 264 249 258 250 221 222 227 224 205 197
292 288 299 309 313 313 298 261 298 323 315 240 201 201 193 184 200 212 33 9 283 239 160 226 223 152 172 175 146 142 177 269 350 77 118 143 213 88 151 206 147 208 180 128 228 241 165 79 59 109 116 139 189 245 226 155 127 242 237 127 122 120 150 180 104 335 249 269 302 183 165 273 276 242 253 253 253 276 275 265 266 253 230 227 230 223 203 198
286 287 304 312 318 311 272 267 298 285 215 202 180 199 187 172 202 140 58 288 275 174 131 267 97 123 157 84 87 118 219 290 100 251 354 81 201 71 183 224 178 190 188 141 220 260 131 158 182 143 117 182 208 227 195 158 145 238 201 124 111 120 150 148 124 211 279 357 295 217 152 274 272 252 314 349 215 256 264 261 264 257 237 232 231 221 206 202
281 284 306 306 307 304 269 260 267 228 179 172 161 176 170 180 208 66 91 240 268 56 98 65 129 116 43 87 61 58 352 348 133 266 347 71 78 71 176 212 150 164 199 146 223 261 90 198 193 150 156 215 213 226 188 161 178 204 147 110 74 74 81 87 108 163 34 326 267 218 167 230 274 230 115 77 202 237 249 253 260 263 251 233 228 220 206 199
282 285 303 292 290 301 276 256 252 229 201 182 168 149 156 167 102 108 221 240 254 241 126 111 175 162 98 123 268 317 223 272 282 350 9 76 13 34 128 173 100 120 326 352 270 262 329 263 185 154 182 191 141 90 93 124 142 139 110 67 33 37 46 53 52 69 45 277 270 222 181 193 283 247 161 175 210 208 216 243 263 269 267 245 227 215 200 197
288 286 287 274 272 286 274 279 270 226 213 196 159 140 134 64 85 172 227 240 252 243 159 179 204 134 135 157 209 199 174 270 270 133 140 163 23 36 78 162 90 78 345 319 283 296 337 312 219 234 167 129 99 77 40 59 104 111 89 57 16 343 11 21 356 42 91 256 276 247 183 188 246 248 197 232 257 216 192 215 237 252 263 250 225 214 200 195
286 278 269 261 259 264 257 279 335 250 206 175 153 124 99 53 223 196 228 267 258 220 172 185 209 161 167 164 191 181 167 233 210 163 164 159 172 185 197 195 163 93 300 249 268 332 302 231 230 261 179 140 111 85 10 358 54 98 96 81 47 327 351 346 312 62 224 250 266 146 168 214 247 246 228 241 255 237 211 213 223 244 262 250 215 214 201 187
274 267 254 250 248 256 255 259 297 294 197 163 151 70 85 206 234 178 184 232 226 212 142 119 96 139 144 137 230 198 158 218 195 164 172 142 176 230 247 219 173 169 248 211 261 341 293 288 138 164 250 174 151 160 217 260 144 146 147 131 140 146 54 271 274 276 267 271 257 164 157 257 270 261 228 226 234 231 222 223 228 246 262 252 218 206 196 190
264 256 243 245 247 251 249 247 271 272 198 164 120 73 122 227 234 154 190 223 234 1 44 90 80 94 145 186 235 194 176 229 177 150 180 135 163 236 242 226 196 151 116 144 179 181 246 287 215 177 235 179 178 196 169 142 147 172 155 138 156 156 172 224 231 243 274 293 263 194 181 237 262 287 224 215 236 244 234 237 244 259 262 235 214 197 194 199
260 251 244 249 247 242 234 233 247 238 204 176 110 132 203 223 198 161 203 210 210 355 28 44 86 105 232 266 266 225 209 234 151 132 181 176 187 212 201 204 196 159 133 172 220 163 215 266 249 193 294 164 180 217 112 113 134 207 129 118 176 182 168 207 215 197 253 318 280 206 219 232 221 271 251 221 260 261 258 265 260 268 255 189 202 207 201 201
245 240 237 235 236 234 222 222 233 227 207 162 143 204 224 216 171 184 196 171 179 157 116 14 89 134 248 275 254 242 218 222 154 143 205 211 219 216 199 207 191 179 179 178 192 168 204 272 284 49 341 172 175 203 124 139 183 169 138 173 212 181 131 139 267 28 66 297 273 238 254 272 303 278 255 195 243 250 251 256 250 255 232 183 218 221 205 203
227 225 225 218 225 230 218 216 218 212 197 155 200 219 220 207 188 182 172 153 161 137 134 208 202 174 217 239 225 206 171 199 181 168 207 218 233 206 195 238 195 187 199 191 197 211 192 261 265 130 213 253 173 160 55 18 134 131 183 209 191 123 94 104 243 343 31 251 272 277 264 277 286 282 282 138 222 249 246 242 243 250 216 216 234 227 208 205
217 214 228 218 220 222 212 209 202 186 138 166 228 237 216 200 205 175 157 144 132 134 155 209 213 183 194 209 221 186 171 192 180 178 202 209 244 192 162 208 205 194 204 194 206 245 161 240 272 124 193 278 35 115 155 337 84 133 202 216 120 140 169 109 151 240 255 235 273 280 278 277 253 238 262 218 209 230 240 238 237 232 221 225 237 227 209 202
207 212 249 217 214 211 197 195 191 171 149 195 226 240 214 210 239 206 180 163 133 157 185 217 218 195 187 184 189 180 183 192 176 182 203 194 235 204 161 197 205 195 203 183 191 231 126 204 261 323 239 270 50 178 192 206 44 67 307 317 32 156 173 162 154 180 193 207 269 287 292 281 225 186 244 236 201 204 222 231 229 225 221 223 229 222 204 199
187 217 258 185 198 198 184 180 178 171 203 212 223 234 197 230 259 243 221 202 176 178 199 218 212 211 211 192 194 191 193 201 179 186 222 199 224 237 200 197 169 159 190 159 179 194 105 196 231 275 335 217 192 212 196 181 164 152 189 210 234 148 116 224 219 143 146 188 238 275 281 274 238 158 220 228 198 200 204 213 222 220 222 225 224 217 204 201
168 230 220 167 181 182 169 168 196 197 217 233 237 242 236 219 221 242 251 224 219 235 157 174 198 209 205 199 215 184 170 202 190 192 236 216 218 242 212 186 156 145 120 93 180 198 155 190 208 200 246 219 215 236 190 182 171 175 195 194 190 170 123 207 248 215 157 194 209 178 262 274 262 138 200 211 189 201 200 209 221 216 220 225 222 217 205 200
176 230 172 165 173 169 160 181 223 204 230 235 236 249 236 209 200 228 242 207 216 256 134 191 211 210 202 194 192 175 171 198 203 203 236 223 215 227 208 172 154 148 144 144 200 196 126 123 209 229 235 229 238 12 133 187 140 188 219 194 179 170 157 193 230 224 169 211 210 110 263 271 257 139 181 192 183 209 208 207 216 215 220 224 222 219 209 207
209 206 146 165 170 164 160 209 217 213 238 231 239 259 249 238 226 215 212 201 202 207 219 233 212 209 227 201 164 184 192 205 206 198 216 234 226 225 189 156 150 148 148 148 159 139 99 122 211 250 278 315 350 28 68 52 55 249 243 191 175 197 198 206 221 187 160 212 176 96 257 261 257 121 170 193 194 236 232 208 210 218 226 228 224 216 210 212
203 169 112 171 173 167 169 208 204 214 229 225 233 237 234 246 239 226 211 203 202 194 217 235 215 213 238 194 185 210 197 204 224 206 205 230 241 226 170 157 158 167 183 192 176 172 185 170 170 242 289 305 308 329 359 357 171 222 241 186 193 218 212 210 326 155 218 209 160 152 250 252 254 92 122 153 260 260 249 222 216 225 228 227 224 216 210 208
170 139 41 183 182 181 195 209 194 205 217 220 229 229 229 247 238 225 219 216 215 192 216 241 215 203 220 191 216 232 206 213 235 221 212 229 259 289 170 172 181 190 205 208 165 162 181 181 169 202 233 242 247 247 234 211 188 217 243 200 205 214 204 202 232 212 227 213 163 200 243 255 273 267 202 148 263 260 254 238 225 235 237 229 220 215 210 203
168 171 145 183 199 207 224 218 197 206 211 211 226 228 224 236 246 221 213 223 231 214 223 252 201 187 212 203 224 239 227 229 239 243 238 228 245 315 223 197 203 204 254 99 153 153 157 188 198 214 225 229 241 245 194 127 149 202 217 213 214 213 204 211 234 227 225 225 217 232 241 262 276 266 257 254 255 254 258 252 238 234 236 230 223 217 209 203
191 204 179 166 198 223 233 230 215 221 199 174 197 214 217 227 244 226 201 207 211 204 220 247 219 206 217 209 218 233 228 227 236 244 246 238 236 299 331 238 235 267 13 42 177 151 128 219 220 224 231 234 245 251 201 141 189 212 209 218 221 214 204 207 227 233 225 219 241 245 244 252 260 261 263 265 259 258 265 265 255 239 232 222 220 217 207 203
199 216 187 174 179 198 214 215 207 210 202 182 195 215 220 224 225 220 207 192 185 189 201 232 224 221 223 213 212 229 224 220 230 234 239 240 229 216 343 326 249 261 67 16 281 164 163 234 232 229 239 242 249 253 223 175 224 227 212 225 224 211 206 209 225 233 226 220 244 253 250 247 252 258 263 262 259 259 266 271 266 242 233 219 212 211 205 203
202 256 199 186 195 198 205 209 202 202 207 205 207 217 225 229 227 220 183 144 200 199 198 219 226 223 225 221 213 225 220 220 231 231 230 233 218 181 212 247 253 242 159 180 271 193 175 242 241 238 250 249 248 251 234 213 245 250 242 241 231 210 209 216 227 234 231 231 246 253 255 255 256 258 260 263 265 262 269 279 274 245 232 218 212 213 210 206
199 216 194 190 212 210 210 210 198 200 209 208 212 220 224 233 235 229 182 179 210 205 197 221 233 226 216 215 218 230 230 226 235 238 219 206 210 190 205 221 198 76 207 199 227 229 208 234 241 241 254 253 251 250 231 222 238 247 255 254 244 222 219 229 234 237 237 239 245 252 259 262 262 260 261 267 273 274 273 273 269 260 246 224 218 220 213 210
221 222 183 185 216 207 209 210 194 200 212 204 211 222 222 228 232 231 219 202 213 215 201 216 233 234 199 202 216 229 234 231 237 245 225 185 203 205 210 211 178 156 205 203 172 197 205 221 242 215 240 251 255 246 211 207 230 251 254 254 247 231 229 238 240 234 229 235 245 252 256 258 262 266 268 266 265 265 264 264 264 263 253 229 223 226 219 213
229 230 178 205 226 200 202 213 200 202 212 204 211 217 219 226 229 227 235 223 216 222 216 208 223 230 211 215 221 227 234 237 241 250 242 206 216 228 230 220 195 184 186 184 180 178 181 205 217 200 234 254 258 162 144 133 179 257 251 247 243 237 236 243 249 243 231 228 236 244 245 250 260 271 274 269 264 256 255 256 257 259 254 231 222 226 222 215